| time (UTC) | temp C | wind direction | speed KPH | gust KPH | rain 1hr cm | rain 24hr cm | rain mn cm | humidity % | barometer mb |
| 20260906174326 | 15 | 247 | 0.0 | 4.8 | 0.00 | 0.03 | 0.03 | 92 | 1012.9 |
| 20260906172825 | 14 | 88 | 0.0 | 4.8 | 0.00 | 0.03 | 0.03 | 92 | 1012.7 |
| 20260906172325 | 14 | 100 | 0.0 | 4.8 | 0.00 | 0.03 | 0.03 | 92 | 1012.8 |
| 20260906171825 | 14 | 93 | 0.0 | 4.8 | 0.00 | 0.03 | 0.03 | 92 | 1012.8 |
| 20260906171326 | 14 | 106 | 0.0 | 3.2 | 0.00 | 0.03 | 0.03 | 92 | 1012.8 |
| 20260906170826 | 14 | 134 | 0.0 | 4.8 | 0.00 | 0.03 | 0.03 | 92 | 1012.8 |
| 20260906170326 | 14 | 82 | 1.6 | 4.8 | 0.00 | 0.03 | 0.03 | 92 | 1012.8 |
| 20260906165825 | 14 | 103 | 3.2 | 4.8 | 0.00 | 0.03 | 0.03 | 92 | 1012.9 |
| 20260906165325 | 14 | 126 | 1.6 | 4.8 | 0.00 | 0.03 | 0.03 | 92 | 1013.0 |
| 20260906164326 | 14 | 68 | 0.0 | 4.8 | 0.00 | 0.03 | 0.03 | 92 | 1012.9 |
| 20260906163825 | 14 | 147 | 0.0 | 4.8 | 0.00 | 0.03 | 0.03 | 92 | 1012.9 |
| 20260906163325 | 14 | 137 | 0.0 | 4.8 | 0.00 | 0.03 | 0.03 | 92 | 1012.7 |
| 20260906162825 | 14 | 88 | 0.0 | 4.8 | 0.00 | 0.03 | 0.03 | 92 | 1012.7 |
| 20260906162325 | 14 | 100 | 0.0 | 4.8 | 0.00 | 0.03 | 0.03 | 92 | 1012.7 |
| 20260906161825 | 13 | 127 | 0.0 | 4.8 | 0.00 | 0.03 | 0.03 | 92 | 1012.7 |
| 20260906160825 | 13 | 100 | 1.6 | 4.8 | 0.00 | 0.03 | 0.03 | 92 | 1012.7 |
| 20260906160325 | 13 | 93 | 1.6 | 6.4 | 0.00 | 0.03 | 0.03 | 92 | 1012.7 |
| 20260906155325 | 13 | 140 | 0.0 | 6.4 | 0.00 | 0.03 | 0.03 | 92 | 1012.6 |
| 20260906154825 | 13 | 107 | 3.2 | 6.4 | 0.00 | 0.03 | 0.03 | 92 | 1012.5 |
| 20260906154327 | 13 | 93 | 1.6 | 6.4 | 0.00 | 0.03 | 0.03 | 92 | 1012.5 |
| 20260906153325 | 13 | 109 | 1.6 | 4.8 | 0.00 | 0.03 | 0.03 | 92 | 1012.5 |
| 20260906152325 | 13 | 0 | 0.0 | 0.0 | 0.00 | 0.03 | 0.03 | 92 | 1012.4 |
| 20260906151326 | 13 | 102 | 0.0 | 6.4 | 0.00 | 0.03 | 0.03 | 92 | 1012.3 |
| 20260906150825 | 13 | 99 | 0.0 | 6.4 | 0.00 | 0.03 | 0.03 | 92 | 1012.2 |
| 20260906150325 | 13 | 100 | 1.6 | 6.4 | 0.00 | 0.03 | 0.03 | 92 | 1012.1 |
| 20260906145825 | 13 | 110 | 3.2 | 8.0 | 0.00 | 0.03 | 0.03 | 92 | 1012.1 |
| 20260906145325 | 13 | 113 | 1.6 | 8.0 | 0.00 | 0.03 | 0.03 | 92 | 1012.1 |
| 20260906144825 | 13 | 116 | 4.8 | 8.0 | 0.00 | 0.03 | 0.03 | 92 | 1012.1 |
| 20260906144326 | 13 | 102 | 4.8 | 8.0 | 0.00 | 0.03 | 0.03 | 92 | 1012.0 |
| 20260906142825 | 13 | 96 | 1.6 | 4.8 | 0.00 | 0.03 | 0.03 | 92 | 1011.9 |
| 20260906141825 | 13 | 79 | 3.2 | 3.2 | 0.00 | 0.03 | 0.03 | 92 | 1011.8 |
| 20260906141326 | 13 | 68 | 3.2 | 3.2 | 0.00 | 0.03 | 0.03 | 92 | 1011.8 |
| 20260906140825 | 13 | 72 | 0.0 | 1.6 | 0.00 | 0.03 | 0.03 | 92 | 1011.7 |
| 20260906140325 | 13 | 0 | 0.0 | 0.0 | 0.00 | 0.03 | 0.03 | 92 | 1011.6 |
| 20260906135825 | 13 | 0 | 0.0 | 0.0 | 0.00 | 0.03 | 0.03 | 92 | 1011.6 |
| 20260906134326 | 13 | 100 | 1.6 | 8.0 | 0.03 | 0.03 | 0.03 | 92 | 1011.5 |
| 20260906133825 | 13 | 116 | 4.8 | 8.0 | 0.03 | 0.03 | 0.03 | 92 | 1011.6 |
| 20260906133325 | 13 | 112 | 3.2 | 6.4 | 0.03 | 0.03 | 0.03 | 92 | 1011.7 |
| 20260906132825 | 12 | 7 | 4.8 | 6.4 | 0.03 | 0.03 | 0.03 | 92 | 1011.6 |
| 20260906132325 | 12 | 103 | 0.0 | 6.4 | 0.03 | 0.03 | 0.03 | 92 | 1011.5 |
| 20260906131936 | 12 | 102 | 0.0 | 9.7 | 0.00 | 0.03 | 0.03 | 91 | 1011.6 |
| 20260906131825 | 12 | 103 | 1.6 | 6.4 | 0.03 | 0.03 | 0.03 | 92 | 1011.3 |
| 20260906131326 | 12 | 110 | 0.0 | 4.8 | 0.03 | 0.03 | 0.03 | 92 | 1011.3 |
| 20260906130826 | 12 | 105 | 1.6 | 3.2 | 0.03 | 0.03 | 0.03 | 92 | 1011.4 |
| 20260906130325 | 12 | 99 | 0.0 | 3.2 | 0.03 | 0.03 | 0.03 | 92 | 1011.4 |
| 20260906125825 | 12 | 123 | 1.6 | 9.7 | 0.03 | 0.03 | 0.03 | 92 | 1011.4 |
| 20260906125325 | 12 | 114 | 0.0 | 9.7 | 0.03 | 0.03 | 0.03 | 92 | 1011.5 |
| 20260906124825 | 12 | 102 | 0.0 | 9.7 | 0.00 | 0.03 | 0.03 | 91 | 1011.6 |
| 20260906124326 | 12 | 91 | 4.8 | 8.0 | 0.00 | 0.00 | 0.00 | 91 | 1011.6 |
| 20260906123825 | 13 | 100 | 3.2 | 6.4 | 0.00 | 0.00 | 0.00 | 91 | 1011.6 |
| 20260906123325 | 13 | 74 | 1.6 | 8.0 | 0.00 | 0.00 | 0.00 | 92 | 1011.8 |
| 20260906122825 | 13 | 112 | 0.0 | 8.0 | 0.00 | 0.00 | 0.00 | 92 | 1011.7 |
| 20260906122325 | 12 | 96 | 1.6 | 8.0 | 0.00 | 0.00 | 0.00 | 92 | 1011.6 |
| 20260906121326 | 12 | 107 | 1.6 | 4.8 | 0.00 | 0.00 | 0.00 | 92 | 1011.7 |
| 20260906120825 | 12 | 99 | 1.6 | 6.4 | 0.00 | 0.00 | 0.00 | 92 | 1011.7 |
| 20260906120325 | 12 | 96 | 1.6 | 6.4 | 0.00 | 0.00 | 0.00 | 92 | 1011.6 |
| 20260906115920 | 12 | 106 | 3.2 | 6.4 | 0.00 | 0.00 | 0.00 | 91 | 1011.7 |
| 20260906115825 | 12 | 106 | 3.2 | 6.4 | 0.00 | 0.00 | 0.00 | 91 | 1011.7 |
| 20260906115325 | 12 | 107 | 4.8 | 6.4 | 0.00 | 0.00 | 0.00 | 92 | 1011.7 |
| 20260906114825 | 12 | 98 | 3.2 | 6.4 | 0.00 | 0.00 | 0.00 | 91 | 1011.6 |
| 20260906114326 | 12 | 116 | 4.8 | 4.8 | 0.00 | 0.00 | 0.00 | 91 | 1011.6 |
| 20260906113825 | 12 | 98 | 3.2 | 6.4 | 0.00 | 0.00 | 0.00 | 91 | 1011.5 |
| 20260906112825 | 12 | 106 | 4.8 | 6.4 | 0.00 | 0.00 | 0.00 | 91 | 1011.5 |
| 20260906112325 | 12 | 106 | 4.8 | 6.4 | 0.00 | 0.00 | 0.00 | 91 | 1011.5 |
| 20260906111825 | 12 | 107 | 3.2 | 6.4 | 0.00 | 0.00 | 0.00 | 91 | 1011.5 |
| 20260906111326 | 12 | 100 | 3.2 | 6.4 | 0.00 | 0.00 | 0.00 | 91 | 1011.5 |
| 20260906110825 | 12 | 92 | 3.2 | 3.2 | 0.00 | 0.00 | 0.00 | 91 | 1011.4 |
| 20260906110325 | 12 | 100 | 3.2 | 6.4 | 0.00 | 0.00 | 0.00 | 91 | 1011.4 |
| 20260906105825 | 12 | 99 | 0.0 | 6.4 | 0.00 | 0.00 | 0.00 | 91 | 1011.3 |
| 20260906105325 | 12 | 102 | 1.6 | 6.4 | 0.00 | 0.00 | 0.00 | 91 | 1011.3 |
| 20260906104826 | 12 | 106 | 3.2 | 6.4 | 0.00 | 0.00 | 0.00 | 91 | 1011.2 |
| 20260906104326 | 12 | 105 | 1.6 | 6.4 | 0.00 | 0.00 | 0.00 | 91 | 1011.3 |
| 20260906103325 | 12 | 92 | 4.8 | 8.0 | 0.00 | 0.00 | 0.00 | 91 | 1011.3 |
| 20260906102825 | 12 | 98 | 4.8 | 8.0 | 0.00 | 0.00 | 0.00 | 91 | 1011.3 |
| 20260906102325 | 12 | 117 | 4.8 | 8.0 | 0.00 | 0.00 | 0.00 | 91 | 1011.3 |
| 20260906101825 | 12 | 103 | 4.8 | 6.4 | 0.00 | 0.00 | 0.00 | 91 | 1011.3 |
| 20260906101326 | 12 | 113 | 6.4 | 6.4 | 0.00 | 0.00 | 0.00 | 91 | 1011.3 |
| 20260906100825 | 12 | 110 | 4.8 | 6.4 | 0.00 | 0.00 | 0.00 | 91 | 1011.4 |
| 20260906100325 | 12 | 100 | 3.2 | 6.4 | 0.00 | 0.00 | 0.00 | 91 | 1011.4 |
| 20260906095825 | 12 | 103 | 3.2 | 6.4 | 0.00 | 0.00 | 0.00 | 91 | 1011.4 |
| 20260906095325 | 12 | 110 | 4.8 | 8.0 | 0.00 | 0.00 | 0.00 | 91 | 1011.4 |
| 20260906094326 | 12 | 96 | 6.4 | 8.0 | 0.00 | 0.00 | 0.00 | 91 | 1011.4 |
| 20260906093825 | 12 | 99 | 4.8 | 8.0 | 0.00 | 0.00 | 0.00 | 91 | 1011.5 |
| 20260906093325 | 12 | 96 | 6.4 | 6.4 | 0.00 | 0.00 | 0.00 | 91 | 1011.4 |
| 20260906092825 | 12 | 110 | 4.8 | 6.4 | 0.00 | 0.00 | 0.00 | 91 | 1011.5 |
| 20260906092325 | 12 | 99 | 4.8 | 6.4 | 0.00 | 0.00 | 0.00 | 91 | 1011.5 |
| 20260906091825 | 12 | 98 | 4.8 | 6.4 | 0.00 | 0.00 | 0.00 | 91 | 1011.5 |
| 20260906091326 | 12 | 106 | 3.2 | 6.4 | 0.00 | 0.00 | 0.00 | 91 | 1011.6 |
| 20260906090825 | 12 | 114 | 4.8 | 6.4 | 0.00 | 0.00 | 0.00 | 91 | 1011.5 |
| 20260906090325 | 12 | 109 | 4.8 | 4.8 | 0.00 | 0.00 | 0.00 | 91 | 1011.6 |
| 20260906085825 | 12 | 96 | 1.6 | 8.0 | 0.00 | 0.00 | 0.00 | 91 | 1011.6 |
| 20260906085325 | 12 | 106 | 1.6 | 8.0 | 0.00 | 0.00 | 0.00 | 91 | 1011.5 |
| 20260906084825 | 12 | 99 | 3.2 | 8.0 | 0.00 | 0.00 | 0.00 | 91 | 1011.5 |
| 20260906084326 | 12 | 114 | 4.8 | 8.0 | 0.00 | 0.00 | 0.00 | 91 | 1011.6 |
| 20260906083825 | 12 | 86 | 4.8 | 8.0 | 0.00 | 0.00 | 0.00 | 91 | 1011.6 |
| 20260906083326 | 12 | 103 | 3.2 | 8.0 | 0.00 | 0.00 | 0.00 | 91 | 1011.6 |
| 20260906082825 | 12 | 113 | 3.2 | 4.8 | 0.00 | 0.00 | 0.00 | 91 | 1011.7 |
| 20260906082325 | 12 | 103 | 3.2 | 6.4 | 0.00 | 0.00 | 0.00 | 91 | 1011.7 |
| 20260906081825 | 12 | 102 | 3.2 | 6.4 | 0.00 | 0.00 | 0.00 | 91 | 1011.7 |
| 20260906081326 | 12 | 102 | 1.6 | 6.4 | 0.00 | 0.00 | 0.00 | 91 | 1011.7 |
| 20260906080825 | 12 | 89 | 6.4 | 6.4 | 0.00 | 0.00 | 0.00 | 91 | 1011.7 |
| 20260906080325 | 12 | 98 | 3.2 | 6.4 | 0.00 | 0.00 | 0.00 | 91 | 1011.8 |
| 20260906075825 | 12 | 110 | 4.8 | 6.4 | 0.00 | 0.00 | 0.00 | 91 | 1011.7 |
| 20260906075325 | 12 | 106 | 3.2 | 6.4 | 0.00 | 0.00 | 0.00 | 91 | 1011.6 |
| 20260906074826 | 12 | 109 | 3.2 | 6.4 | 0.00 | 0.00 | 0.00 | 91 | 1011.7 |
| 20260906074326 | 13 | 89 | 3.2 | 8.0 | 0.00 | 0.00 | 0.00 | 91 | 1011.7 |
| 20260906073825 | 13 | 102 | 4.8 | 8.0 | 0.00 | 0.00 | 0.00 | 91 | 1011.7 |
| 20260906073325 | 13 | 91 | 3.2 | 8.0 | 0.00 | 0.00 | 0.00 | 91 | 1011.7 |
| 20260906072825 | 13 | 100 | 4.8 | 9.7 | 0.00 | 0.00 | 0.00 | 90 | 1011.7 |
| 20260906072325 | 13 | 93 | 4.8 | 9.7 | 0.00 | 0.00 | 0.00 | 90 | 1011.7 |
| 20260906071825 | 13 | 95 | 4.8 | 9.7 | 0.00 | 0.00 | 0.00 | 90 | 1011.7 |
| 20260906071326 | 12 | 100 | 6.4 | 8.0 | 0.00 | 0.00 | 0.00 | 90 | 1011.7 |
| 20260906070825 | 13 | 92 | 3.2 | 8.0 | 0.00 | 0.00 | 0.00 | 90 | 1011.7 |
| 20260906070326 | 13 | 116 | 3.2 | 6.4 | 0.00 | 0.00 | 0.00 | 90 | 1011.7 |
| 20260906065825 | 13 | 110 | 3.2 | 6.4 | 0.00 | 0.00 | 0.00 | 90 | 1011.8 |
| 20260906065325 | 13 | 88 | 4.8 | 4.8 | 0.00 | 0.00 | 0.00 | 90 | 1011.7 |
| 20260906064825 | 13 | 105 | 1.6 | 3.2 | 0.00 | 0.00 | 0.00 | 90 | 1011.7 |
| 20260906064326 | 13 | 91 | 1.6 | 3.2 | 0.00 | 0.00 | 0.00 | 90 | 1011.8 |
| 20260906063825 | 13 | 85 | 1.6 | 6.4 | 0.00 | 0.00 | 0.00 | 90 | 1011.8 |
| 20260906063325 | 13 | 88 | 3.2 | 6.4 | 0.00 | 0.00 | 0.00 | 90 | 1011.8 |
| 20260906062325 | 13 | 107 | 4.8 | 6.4 | 0.00 | 0.00 | 0.00 | 90 | 1011.8 |
| 20260906061826 | 13 | 85 | 3.2 | 6.4 | 0.00 | 0.00 | 0.00 | 90 | 1011.8 |
| 20260906061326 | 13 | 99 | 4.8 | 6.4 | 0.00 | 0.00 | 0.00 | 90 | 1011.9 |
| 20260906060825 | 13 | 105 | 3.2 | 6.4 | 0.00 | 0.00 | 0.00 | 90 | 1011.9 |
| 20260906060325 | 13 | 96 | 4.8 | 4.8 | 0.00 | 0.00 | 0.00 | 90 | 1011.9 |
| 20260906055825 | 13 | 102 | 3.2 | 3.2 | 0.00 | 0.00 | 0.00 | 90 | 1011.9 |
| 20260906055325 | 13 | 105 | 1.6 | 4.8 | 0.00 | 0.00 | 0.00 | 90 | 1011.9 |
| 20260906054826 | 13 | 103 | 1.6 | 4.8 | 0.00 | 0.00 | 0.00 | 90 | 1011.9 |
| 20260906054326 | 13 | 100 | 3.2 | 4.8 | 0.00 | 0.00 | 0.00 | 90 | 1012.0 |
| 20260906053825 | 13 | 110 | 3.2 | 6.4 | 0.00 | 0.00 | 0.00 | 90 | 1012.0 |
| 20260906053325 | 13 | 91 | 3.2 | 6.4 | 0.00 | 0.00 | 0.00 | 89 | 1012.0 |
| 20260906052825 | 13 | 105 | 1.6 | 6.4 | 0.00 | 0.00 | 0.00 | 89 | 1012.0 |
| 20260906052325 | 13 | 107 | 3.2 | 4.8 | 0.00 | 0.00 | 0.00 | 89 | 1012.1 |
| 20260906051825 | 13 | 84 | 3.2 | 3.2 | 0.00 | 0.00 | 0.00 | 89 | 1012.1 |
| 20260906051326 | 13 | 88 | 1.6 | 4.8 | 0.00 | 0.00 | 0.00 | 89 | 1012.2 |
| 20260906050825 | 13 | 0 | 0.0 | 4.8 | 0.00 | 0.00 | 0.00 | 89 | 1012.2 |
| 20260906050325 | 13 | 116 | 0.0 | 4.8 | 0.00 | 0.00 | 0.00 | 89 | 1012.3 |
| 20260906045825 | 13 | 0 | 3.2 | 3.2 | 0.00 | 0.00 | 0.00 | 89 | 1012.2 |
| 20260906045325 | 13 | 116 | 0.0 | 1.6 | 0.00 | 0.00 | 0.00 | 89 | 1012.1 |
| 20260906044826 | 13 | 107 | 0.0 | 6.4 | 0.00 | 0.00 | 0.00 | 89 | 1012.2 |
| 20260906044326 | 14 | 78 | 1.6 | 6.4 | 0.00 | 0.00 | 0.00 | 89 | 1012.1 |
| 20260906043827 | 14 | 162 | 1.6 | 6.4 | 0.00 | 0.00 | 0.00 | 89 | 1012.0 |
| 20260906043325 | 14 | 0 | 1.6 | 1.6 | 0.00 | 0.00 | 0.00 | 89 | 1012.0 |
| 20260906042825 | 14 | 0 | 0.0 | 3.2 | 0.00 | 0.00 | 0.00 | 89 | 1011.9 |
| 20260906042325 | 14 | 116 | 0.0 | 3.2 | 0.00 | 0.00 | 0.00 | 89 | 1012.0 |
| 20260906041825 | 14 | 110 | 0.0 | 3.2 | 0.00 | 0.00 | 0.00 | 89 | 1012.0 |
| 20260906040825 | 14 | 92 | 3.2 | 6.4 | 0.00 | 0.00 | 0.00 | 89 | 1012.0 |
| 20260906040326 | 14 | 103 | 4.8 | 6.4 | 0.00 | 0.00 | 0.00 | 89 | 1012.1 |
| 20260906035825 | 14 | 0 | 3.2 | 3.2 | 0.00 | 0.03 | 0.00 | 88 | 1012.0 |
| 20260906035325 | 15 | 0 | 0.0 | 0.0 | 0.00 | 0.03 | 0.00 | 88 | 1011.9 |
| 20260906034825 | 15 | 81 | 0.0 | 3.2 | 0.00 | 0.03 | 0.00 | 88 | 1011.9 |
| 20260906034326 | 15 | 88 | 0.0 | 3.2 | 0.00 | 0.03 | 0.00 | 88 | 1012.0 |
| 20260906033825 | 15 | 98 | 1.6 | 3.2 | 0.00 | 0.03 | 0.00 | 88 | 1012.0 |
| 20260906033325 | 15 | 15 | 1.6 | 4.8 | 0.00 | 0.03 | 0.00 | 88 | 1012.1 |
| 20260906032825 | 15 | 327 | 1.6 | 4.8 | 0.00 | 0.03 | 0.00 | 88 | 1012.1 |
| 20260906032325 | 15 | 117 | 0.0 | 4.8 | 0.00 | 0.03 | 0.00 | 88 | 1012.1 |
| 20260906031825 | 15 | 0 | 0.0 | 0.0 | 0.00 | 0.03 | 0.00 | 88 | 1012.2 |
| 20260906031326 | 15 | 0 | 0.0 | 0.0 | 0.00 | 0.03 | 0.00 | 88 | 1012.2 |
| 20260906030825 | 15 | 0 | 0.0 | 0.0 | 0.00 | 0.03 | 0.00 | 87 | 1012.3 |
| 20260906030325 | 15 | 0 | 0.0 | 0.0 | 0.00 | 0.03 | 0.00 | 87 | 1012.2 |
| 20260906025825 | 15 | 0 | 0.0 | 0.0 | 0.00 | 0.05 | 0.00 | 87 | 1012.2 |
| 20260906025325 | 16 | 0 | 0.0 | 0.0 | 0.00 | 0.05 | 0.00 | 87 | 1012.2 |
| 20260906024827 | 15 | 0 | 0.0 | 0.0 | 0.00 | 0.05 | 0.00 | 87 | 1012.3 |
| 20260906024326 | 15 | 0 | 0.0 | 0.0 | 0.00 | 0.05 | 0.00 | 87 | 1012.3 |
| 20260906023825 | 15 | 312 | 0.0 | 8.0 | 0.00 | 0.05 | 0.00 | 87 | 1012.2 |
| 20260906022825 | 16 | 330 | 3.2 | 8.0 | 0.00 | 0.05 | 0.00 | 87 | 1012.2 |
| 20260906022325 | 16 | 333 | 0.0 | 8.0 | 0.00 | 0.05 | 0.00 | 87 | 1012.2 |
| 20260906021825 | 16 | 308 | 0.0 | 8.0 | 0.00 | 0.05 | 0.00 | 87 | 1012.2 |
| 20260906020826 | 16 | 337 | 0.0 | 6.4 | 0.00 | 0.05 | 0.00 | 87 | 1012.2 |
| 20260906020325 | 16 | 333 | 1.6 | 6.4 | 0.00 | 0.05 | 0.00 | 87 | 1012.2 |
| 20260906015825 | 16 | 313 | 3.2 | 8.0 | 0.00 | 0.05 | 0.00 | 86 | 1012.2 |
| 20260906015325 | 16 | 294 | 3.2 | 8.0 | 0.00 | 0.05 | 0.00 | 86 | 1012.2 |
| 20260906014825 | 16 | 319 | 4.8 | 8.0 | 0.00 | 0.05 | 0.00 | 86 | 1012.2 |
| 20260906014326 | 16 | 331 | 4.8 | 8.0 | 0.00 | 0.05 | 0.00 | 86 | 1012.3 |
| 20260906013825 | 16 | 294 | 3.2 | 8.0 | 0.00 | 0.05 | 0.00 | 86 | 1012.3 |
| 20260906013325 | 16 | 296 | 4.8 | 8.0 | 0.00 | 0.05 | 0.00 | 86 | 1012.2 |
| 20260906012826 | 16 | 296 | 3.2 | 6.4 | 0.00 | 0.05 | 0.00 | 86 | 1012.2 |
| 20260906012325 | 16 | 344 | 1.6 | 6.4 | 0.00 | 0.05 | 0.00 | 86 | 1012.3 |
| 20260906011825 | 16 | 291 | 1.6 | 6.4 | 0.00 | 0.05 | 0.00 | 85 | 1012.2 |
| 20260906011326 | 16 | 284 | 3.2 | 6.4 | 0.00 | 0.05 | 0.00 | 86 | 1012.3 |
| 20260906010825 | 16 | 310 | 3.2 | 9.7 | 0.00 | 0.05 | 0.00 | 86 | 1012.3 |
| 20260906010329 | 16 | 337 | 1.6 | 9.7 | 0.00 | 0.05 | 0.00 | 86 | 1012.3 |
| 20260906005825 | 16 | 296 | 4.8 | 9.7 | 0.00 | 0.05 | 0.00 | 86 | 1012.2 |
| 20260906005325 | 16 | 327 | 6.4 | 8.0 | 0.00 | 0.05 | 0.00 | 87 | 1012.3 |
| 20260906004825 | 16 | 287 | 4.8 | 8.0 | 0.00 | 0.05 | 0.00 | 87 | 1012.3 |
| 20260906004326 | 16 | 305 | 4.8 | 8.0 | 0.00 | 0.05 | 0.00 | 87 | 1012.3 |
| 20260906003825 | 16 | 299 | 1.6 | 6.4 | 0.00 | 0.05 | 0.00 | 87 | 1012.2 |
| 20260906003325 | 16 | 306 | 3.2 | 6.4 | 0.00 | 0.05 | 0.00 | 87 | 1012.2 |
| 20260906002825 | 16 | 322 | 3.2 | 8.0 | 0.00 | 0.05 | 0.00 | 87 | 1012.2 |
| 20260906002325 | 16 | 331 | 4.8 | 8.0 | 0.00 | 0.05 | 0.00 | 87 | 1012.2 |
| 20260906001825 | 16 | 295 | 4.8 | 8.0 | 0.00 | 0.05 | 0.00 | 87 | 1012.2 |
| 20260906001326 | 16 | 282 | 4.8 | 6.4 | 0.00 | 0.05 | 0.00 | 87 | 1012.3 |
| 20260906000825 | 16 | 330 | 4.8 | 4.8 | 0.00 | 0.05 | 0.00 | 87 | 1012.2 |
| 20260906000326 | 16 | 277 | 1.6 | 4.8 | 0.00 | 0.05 | 0.00 | 87 | 1012.3 |
| 20260905235825 | 16 | 288 | 1.6 | 3.2 | 0.00 | 0.05 | 0.00 | 87 | 1012.3 |
| 20260905235325 | 16 | 263 | 1.6 | 9.7 | 0.00 | 0.05 | 0.00 | 87 | 1012.3 |
| 20260905234825 | 16 | 278 | 1.6 | 9.7 | 0.00 | 0.05 | 0.00 | 87 | 1012.3 |
| 20260905234326 | 17 | 294 | 4.8 | 9.7 | 0.00 | 0.05 | 0.00 | 87 | 1012.3 |
| 20260905233825 | 17 | 289 | 3.2 | 9.7 | 0.00 | 0.05 | 0.00 | 87 | 1012.3 |
| 20260905233325 | 17 | 275 | 4.8 | 9.7 | 0.00 | 0.05 | 0.00 | 87 | 1012.3 |
| 20260905232825 | 17 | 287 | 6.4 | 9.7 | 0.00 | 0.05 | 0.00 | 87 | 1012.3 |
| 20260905232325 | 17 | 281 | 6.4 | 9.7 | 0.00 | 0.05 | 0.00 | 86 | 1012.3 |
| 20260905231827 | 17 | 289 | 6.4 | 9.7 | 0.00 | 0.05 | 0.00 | 87 | 1012.3 |
| 20260905231327 | 17 | 287 | 4.8 | 9.7 | 0.00 | 0.05 | 0.00 | 87 | 1012.4 |
| 20260905230827 | 17 | 287 | 4.8 | 8.0 | 0.00 | 0.05 | 0.00 | 86 | 1012.4 |
| 20260905230325 | 17 | 299 | 4.8 | 9.7 | 0.00 | 0.05 | 0.00 | 87 | 1012.3 |
| 20260905225825 | 17 | 295 | 3.2 | 9.7 | 0.00 | 0.48 | 0.00 | 86 | 1012.3 |
| 20260905225325 | 17 | 315 | 6.4 | 9.7 | 0.00 | 0.48 | 0.00 | 86 | 1012.4 |
| 20260905224825 | 17 | 317 | 4.8 | 9.7 | 0.00 | 0.48 | 0.00 | 86 | 1012.4 |
| 20260905224326 | 17 | 313 | 6.4 | 9.7 | 0.00 | 0.48 | 0.00 | 86 | 1012.4 |
| 20260905223825 | 17 | 303 | 4.8 | 8.0 | 0.00 | 0.48 | 0.00 | 86 | 1012.5 |
| 20260905223325 | 17 | 256 | 3.2 | 11.3 | 0.00 | 0.48 | 0.00 | 86 | 1012.6 |
| 20260905222825 | 17 | 257 | 3.2 | 11.3 | 0.00 | 0.48 | 0.00 | 87 | 1012.6 |
| 20260905222325 | 17 | 308 | 4.8 | 11.3 | 0.00 | 0.48 | 0.00 | 87 | 1012.7 |
| 20260905221825 | 17 | 271 | 6.4 | 9.7 | 0.00 | 0.48 | 0.00 | 86 | 1012.8 |
| 20260905221326 | 17 | 294 | 1.6 | 8.0 | 0.00 | 0.48 | 0.00 | 87 | 1012.9 |
| 20260905220825 | 17 | 287 | 4.8 | 8.0 | 0.00 | 0.48 | 0.00 | 87 | 1012.9 |
| 20260905220325 | 17 | 305 | 1.6 | 8.0 | 0.00 | 0.48 | 0.00 | 88 | 1013.0 |
| 20260905215825 | 17 | 289 | 3.2 | 8.0 | 0.00 | 1.04 | 0.00 | 88 | 1013.0 |
| 20260905214825 | 17 | 284 | 1.6 | 6.4 | 0.00 | 1.04 | 0.00 | 87 | 1013.0 |
| 20260905214326 | 17 | 273 | 3.2 | 8.0 | 0.00 | 1.04 | 0.00 | 87 | 1013.0 |
| 20260905213825 | 17 | 235 | 3.2 | 8.0 | 0.00 | 1.04 | 0.00 | 87 | 1013.1 |
| 20260905213325 | 17 | 280 | 3.2 | 8.0 | 0.00 | 1.04 | 0.00 | 88 | 1013.1 |
| 20260905212825 | 17 | 217 | 1.6 | 11.3 | 0.00 | 1.04 | 0.00 | 87 | 1013.1 |
| 20260905212325 | 17 | 278 | 4.8 | 11.3 | 0.00 | 1.04 | 0.00 | 88 | 1013.2 |
| 20260905211825 | 17 | 288 | 3.2 | 11.3 | 0.00 | 1.04 | 0.00 | 88 | 1013.2 |
| 20260905211326 | 17 | 301 | 1.6 | 8.0 | 0.00 | 1.04 | 0.00 | 88 | 1013.1 |
| 20260905210825 | 17 | 319 | 1.6 | 8.0 | 0.00 | 1.04 | 0.00 | 87 | 1013.2 |
| 20260905210359 | 17 | 281 | 1.6 | 8.0 | 0.00 | 1.04 | 0.00 | 87 | 1013.2 |
| 20260905210325 | 17 | 281 | 1.6 | 8.0 | 0.00 | 1.04 | 0.00 | 87 | 1013.2 |
| 20260905205825 | 17 | 296 | 3.2 | 8.0 | 0.00 | 1.04 | 0.00 | 87 | 1013.2 |
| 20260905205325 | 17 | 305 | 1.6 | 8.0 | 0.00 | 1.04 | 0.00 | 87 | 1013.2 |
| 20260905204825 | 17 | 270 | 3.2 | 8.0 | 0.00 | 1.04 | 0.00 | 86 | 1013.3 |
| 20260905203825 | 18 | 267 | 3.2 | 9.7 | 0.00 | 1.04 | 0.00 | 88 | 1013.2 |
| 20260905203325 | 18 | 294 | 3.2 | 9.7 | 0.00 | 1.04 | 0.00 | 87 | 1013.2 |
| 20260905202825 | 18 | 243 | 3.2 | 9.7 | 0.00 | 1.04 | 0.00 | 88 | 1013.1 |
| 20260905202325 | 17 | 302 | 1.6 | 9.7 | 0.00 | 1.04 | 0.00 | 88 | 1013.2 |
| 20260905201825 | 18 | 256 | 3.2 | 8.0 | 0.00 | 1.04 | 0.00 | 88 | 1013.1 |
| 20260905201326 | 18 | 333 | 0.0 | 8.0 | 0.00 | 1.04 | 0.00 | 88 | 1013.1 |
| 20260905200825 | 17 | 210 | 3.2 | 8.0 | 0.00 | 1.04 | 0.00 | 90 | 1013.1 |
| 20260905200326 | 17 | 303 | 4.8 | 6.4 | 0.00 | 1.04 | 0.00 | 90 | 1013.1 |
| 20260905195825 | 17 | 301 | 0.0 | 4.8 | 0.00 | 1.04 | 0.00 | 90 | 1013.1 |
| 20260905195325 | 16 | 280 | 0.0 | 9.7 | 0.00 | 1.04 | 0.00 | 89 | 1013.1 |
| 20260905194825 | 16 | 273 | 0.0 | 9.7 | 0.00 | 1.04 | 0.00 | 89 | 1013.1 |
| 20260905194326 | 16 | 235 | 0.0 | 9.7 | 0.00 | 1.04 | 0.00 | 89 | 1013.1 |
| 20260905193825 | 16 | 291 | 1.6 | 9.7 | 0.00 | 1.04 | 0.00 | 90 | 1013.1 |
| 20260905193325 | 16 | 194 | 3.2 | 9.7 | 0.00 | 1.04 | 0.00 | 90 | 1013.1 |
| 20260905192825 | 16 | 218 | 4.8 | 9.7 | 0.00 | 1.04 | 0.00 | 89 | 1013.2 |
| 20260905192325 | 16 | 247 | 6.4 | 8.0 | 0.00 | 1.04 | 0.00 | 90 | 1013.1 |
| 20260905191825 | 16 | 268 | 1.6 | 8.0 | 0.00 | 1.04 | 0.00 | 90 | 1013.1 |
| 20260905191326 | 16 | 252 | 4.8 | 8.0 | 0.00 | 1.04 | 0.00 | 90 | 1013.2 |
| 20260905190825 | 16 | 196 | 1.6 | 8.0 | 0.00 | 1.04 | 0.00 | 89 | 1013.2 |
| 20260905190325 | 16 | 261 | 1.6 | 12.9 | 0.00 | 1.04 | 0.00 | 89 | 1013.1 |
| 20260905185825 | 16 | 252 | 4.8 | 12.9 | 0.00 | 1.04 | 0.00 | 89 | 1013.1 |
| 20260905185325 | 17 | 257 | 3.2 | 12.9 | 0.00 | 1.04 | 0.00 | 88 | 1013.1 |
| 20260905184825 | 17 | 247 | 4.8 | 9.7 | 0.00 | 1.04 | 0.00 | 88 | 1013.1 |
| 20260905184326 | 17 | 239 | 3.2 | 9.7 | 0.00 | 1.04 | 0.00 | 89 | 1013.1 |
| 20260905183825 | 17 | 231 | 6.4 | 9.7 | 0.00 | 1.04 | 0.00 | 90 | 1013.0 |
| 20260905183325 | 17 | 254 | 3.2 | 8.0 | 0.00 | 1.04 | 0.00 | 90 | 1013.0 |
| 20260905182825 | 17 | 271 | 4.8 | 8.0 | 0.00 | 1.04 | 0.00 | 90 | 1013.0 |
| 20260905182325 | 17 | 271 | 3.2 | 8.0 | 0.00 | 1.04 | 0.00 | 92 | 1012.9 |
| 20260905181825 | 16 | 250 | 0.0 | 8.0 | 0.00 | 1.04 | 0.00 | 92 | 1012.9 |
| 20260905181326 | 16 | 226 | 1.6 | 6.4 | 0.00 | 1.04 | 0.00 | 92 | 1012.9 |
| 20260905180825 | 16 | 236 | 1.6 | 8.0 | 0.00 | 1.04 | 0.00 | 91 | 1012.9 |
| 20260905180325 | 16 | 198 | 0.0 | 8.0 | 0.00 | 1.04 | 0.00 | 91 | 1012.9 |
| 20260905175825 | 16 | 233 | 1.6 | 8.0 | 0.00 | 1.04 | 0.00 | 91 | 1013.0 |
| 20260905175325 | 16 | 217 | 4.8 | 6.4 | 0.00 | 1.04 | 0.00 | 91 | 1013.0 |
| 20260905174825 | 16 | 261 | 1.6 | 6.4 | 0.00 | 1.04 | 0.00 | 91 | 1012.9 |